Location: Владивосток
(43.1151°N, 131.8856°E)
Time: 01:27:58
(UTC+10:00)

FO-29 - Pass Details

Date: 01 May 2024
Orbit: 801 x 1320 km, 98.6° (Epoch: 19 May)

Event Time Altitude Azimuth Distance (km) Brightness Sun altitude
Rises 03:52:53 0° 9° (N) 4,269 13.8 -20.8°
Reaches altitude 10° 03:55:38 10° 4° (N) 3,327 13.0 -20.5°
Maximum altitude 04:03:05 50° 293° (WNW) 1,636 10.5 -19.5°
Enters shadow 04:07:03 28° 234° (SW) 2,249 10.8 -19.0°
